*** The Vicarage Weather Feed ***

NOAA NWS Hourly Roundups by Site

Regional Weather Roundup for Omaha, NE

To Select Another Site Choose from List

Select Site:  

000
ASUS43 KOAX 181310
RWRNE

WEATHER ROUNDUP FOR NEBRASKA
NATIONAL WEATHER SERVICE OMAHA NE
700 AM CST MON JAN 18 2021

NOTES: SATELLITE DATA IS BEING USED TO AUGMENT CLOUD COVER ABOVE
       12000 FEET.
       "FAIR" INDICATES FEW OR NO CLOUDS BELOW 12,000 FEET WITH NO
       SIGNIFICANT WEATHER AND/OR OBSTRUCTIONS TO VISIBILITY.


NEZ001>004-019>022-054>056-181400-
NEBRASKA PANHANDLE

CITY           SKY/WX    TMP DP  RH WIND       PRES   REMARKS
SCOTTSBLUFF    CLOUDY    34  22  61 NW13      29.98R WCI  25
ALLIANCE       CLEAR     32  22  66 NW17G29   29.91R WCI  21
CHADRON        CLOUDY    32  24  72 NW16G25   29.94R WCI  21
GORDON         CLOUDY    32  26  80 N26G39    29.89R WCI  18
KIMBALL        MOCLDY    29  24  78 NW21G28   29.97R WCI  16
SIDNEY         CLOUDY    33  23  66 NW17G32   29.94R WCI  22
$$

NEZ057>060-069>072-079>082-181400-
SOUTHWEST NEBRASKA

CITY           SKY/WX    TMP DP  RH WIND       PRES   REMARKS
NORTH PLATTE   PTCLDY    36  28  73 NW13G24   29.87R WCI  27
IMPERIAL       MOCLDY    38  25  59 NW23G35   29.91R WCI  27
LEXINGTON      MOCLDY    31  25  78 W9        29.86R WCI  23
MCCOOK         MOCLDY    39  28  64 NW13      29.89R WCI  31
OGALLALA       PTCLDY    36  27  67 NW22G28   29.90R WCI  25
$$

NEZ005>010-023>029-035>040-094-181400-
NORTH CENTRAL NEBRASKA

CITY           SKY/WX    TMP DP  RH WIND       PRES   REMARKS
VALENTINE      CLOUDY    35  29  78 NW22G31   29.85R WCI  23
AINSWORTH      CLOUDY    32  30  92 NW10      29.83R WCI  23
BROKEN BOW     CLEAR     36  28  73 NW26G38   29.81R WCI  24
O`NEILL        CLOUDY    29  25  84 NE6       29.83S WCI  23
ORD            PTCLDY    28  21  75 W3        29.81R
THEDFORD       CLEAR     33  28  81 NW15G21   29.86R WCI  23
$$

NEZ041-046>049-061>064-073>077-083>087-181400-
SOUTH CENTRAL NEBRASKA

CITY           SKY/WX    TMP DP  RH WIND       PRES   REMARKS
GRAND ISLAND   CLOUDY    32  25  75 SE6       29.83R WCI  26
AURORA         CLOUDY    34  27  75 CALM      29.84R
HASTINGS       CLOUDY    32  24  72 CALM      29.84R
HEBRON         CLOUDY    32  25  76 CALM      29.85R
HOLDREGE       MOCLDY    36  26  66 NW12      29.84R WCI  28
KEARNEY        MOCLDY    30  20  66 NW10      29.85R WCI  21
YORK           CLOUDY    32  28  86 CALM      29.84R
$$

NEZ011>018-030>034-042>045-181400-
NORTHEAST NEBRASKA

CITY           SKY/WX    TMP DP  RH WIND       PRES   REMARKS
NORFOLK        CLOUDY    29  23  78 CALM      29.85R
ALBION         CLOUDY    31  28  88 CALM      29.84R
BLAIR          CLOUDY    28  25  88 SE3       29.87R
COLUMBUS       CLOUDY    29  27  92 SE3       29.87R
FREMONT        CLOUDY    29  26  88 CALM      29.87R
TEKAMAH        CLOUDY    27  23  85 S3        29.89R
WAYNE          CLOUDY    27  25  93 N6        29.88R WCI  20
$$

NEZ050>053-065>068-078-088>093-181400-
SOUTHEAST NEBRASKA

CITY           SKY/WX    TMP DP  RH WIND       PRES   REMARKS
LINCOLN        CLOUDY    30  25  81 E3        29.87S
OMAHA EPPLEY   CLOUDY    26  24  92 CALM      29.90R
BEATRICE       CLOUDY    30  26  85 CALM      29.86R
FALLS CITY     CLOUDY    29  25  85 SE3       29.88R
NEBRASKA CITY  CLOUDY    29  27  90 CALM      29.89R
PLATTSMOUTH    CLOUDY    29  25  84 E3        29.88S
$$

NEZ044-045-051>053-067-181400-
OMAHA AREA

CITY           SKY/WX    TMP DP  RH WIND       PRES   REMARKS
OMAHA EPPLEY   CLOUDY    26  24  92 CALM      29.90R
BLAIR          CLOUDY    28  25  88 SE3       29.87R
FREMONT        CLOUDY    29  26  88 CALM      29.87R
MILLARD        CLOUDY    29  25  82 CALM      29.89R
OFFUTT AFB     CLOUDY    27  23  87 CALM      29.89R
PLATTSMOUTH    CLOUDY    29  25  84 E3        29.88S
WAHOO          CLOUDY    31  28  88 CALM      29.87R
$$


 

View Past Reports for Omaha, NE.

Products Courtesy of NOAA-NWS
NWS Information Parsing Script by Ken True at Saratoga Weather - Script by SE Lincoln Weather.

This data is offered only as a general guide to local weather conditions. It should not be relied upon in lieu of officially disseminated weather information for determining possible risk to persons or property. This site, including all information contained therein, is made available as is without warranties of any kind, either express or implied. The Vicarage Weather Feed© includes links to other sites for user convenience only. The content of any linked third-party site is not controlled by The Vicarage Weather Feed©. Access to any third-party website through The Vicarage Weather Feed©, regardless of whether or not the third-party site is a linked site, is entirely at the users own risk. Externally sourced content or material is excluded from The Vicarage Weather Feed© copyright and is the copyright and property of the respective provider. Skywarn® and the Skywarn® logo are registered trademarks of the National Oceanic and Atmospheric Administration, used with permission.